Regional Weather Roundup
Issued by NWS Sioux Falls, SD

Home | Current Version | Previous Version | Graphics & Text | Print | Product List | Glossary On
Versions: 1 2 3 4 5 6 7 8 9 10 11 12 13 14 15 16 17 18 19 20 21 22 23 24 25 26 27 28 29 30 31 32 33 34 35 36 37 38 39 40 41 42 43 44 45 46 47 48 49 50
076
ASUS43 KFSD 260310
RWRFSD

WEATHER ROUNDUP FOR SE SOUTH DAKOTA/SW MINNESOTA/NW IOWA
NATIONAL WEATHER SERVICE SIOUX FALLS SD
1000 PM CDT TUE JUL 25 2017

NOTE: "FAIR" INDICATES FEW OR NO CLOUDS BELOW 12,000 FEET WITH NO
SIGNIFICANT WEATHER AND OR OBSTRUCTIONS TO VISIBILITY.


SDZ038>040-050-052>070-260400-
SOUTHEAST SOUTH DAKOTA

CITY           SKY/WX    TMP DP  RH WIND       PRES   REMARKS
BROOKINGS      LGT RAIN  72  68  87 SE15      29.96S
CHAMBERLAIN    LGT RAIN  72  71  97 N14G22    29.95R
HURON          CLOUDY    73  69  87 SE10      30.00R
MADISON        LGT RAIN  72  72 100 E9        30.00R
MITCHELL       TSTM      70  70 100 NE5       30.04R FOG
SIOUX FALLS    CLOUDY    80  71  74 NE14      29.96R
WINNER         FAIR      74  67  78 NE9       29.93F
YANKTON        CLOUDY    84  68  58 SE6       29.92R
$$

MNZ071-072-080-081-089-090-097-098-260400-
SOUTHWEST MINNESOTA

CITY           SKY/WX    TMP DP  RH WIND       PRES   REMARKS
FAIRMONT       CLOUDY    77  74  90 S6        29.99R
JACKSON        LGT RAIN  77  72  83 CALM      30.01R
LUVERNE        CLOUDY    73  64  73 NE9G18    29.97F
MARSHALL       LGT RAIN  71  69  93 S5        29.96F
MONTEVIDEO     PTCLDY    77  64  65 W8        29.97R
PIPESTONE      LGT RAIN  75  72  88 E9        29.98F
REDWOOD FALLS  LGT RAIN  75  70  84 W7        29.98R
TRACY          LGT RAIN  73  72  94 N5        29.99F
WINDOM         LGT RAIN  77  73  88 CALM      30.00S
WORTHINGTON    LGT RAIN  76  74  93 E5        29.99F
$$

IAZ001>003-012>014-020>022-031-032-NEZ013-014-SDZ071-260400-
NORTHWEST IOWA

CITY           SKY/WX    TMP DP  RH WIND       PRES   REMARKS
CHEROKEE       CLOUDY    81  75  82 SE6       29.96R
DENISON        CLOUDY    81  75  83 S14G21    29.98S
ESTHERVILLE    CLOUDY    77  74  90 CALM      30.00R
ORANGE CITY    CLOUDY    81  75  83 SE5       29.95S
SHELDON        CLOUDY    81  75  83 SE9       29.95R
SIOUX CITY     CLOUDY    83  76  79 SE10      29.91S
SPENCER        CLOUDY    82  74  76 SE7       29.99R
STORM LAKE     CLOUDY    81  75  83 S9        30.00R
$$

ABBREVIATIONS USED IN REMARKS
   TC - TEMPERATURE IN CELSIUS
  WCI - WIND CHILL INDEX
   HX - HEAT INDEX
  VSB - VISIBILITY





USA.gov is the U.S. government's official web portal to all federal, state and local government web resources and services.